Regional Weather Roundup
Issued by NWS

Home | Current Version | Previous Version | Graphics & Text | Print | Product List | Glossary On
Versions: 1 2 3 4 5 6 7 8 9 10 11 12 13 14 15 16 17 18 19 20 21 22 23 24 25 26 27 28 29 30 31 32 33 34 35 36 37 38 39 40 41 42 43 44 45 46 47 48 49 50
000
ASUS43 KLMK 300210
RWRKY
KENTUCKY REGIONAL WEATHER ROUNDUP
NATIONAL WEATHER SERVICE LOUISVILLE KY
1000 PM EDT MON SEP 29 2014

NOTE "FAIR" INDICATES FEW OR NO CLOUDS BELOW 12,000 FEET
WITH NO SIGNIFICANT WEATHER AND/OR OBSTRUCTIONS TO VISIBILITY.

KYZ001>023-026-027-061>063-070>075-300300-
WESTERN AND SOUTH CENTRAL KENTUCKY

CITY           SKY/WX    TMP DP  RH WIND       PRES   REMARKS
PADUCAH        CLEAR     61  58  90 CALM      29.95R
HENDERSON      NOT AVBL
OWENSBORO      CLEAR     68  57  67 CALM      29.96R
HOPKINSVILLE   CLEAR     70  58  64 CALM      29.95R
BOWLING GREEN  CLEAR     69  57  65 CALM      29.96R
GLASGOW        CLEAR     63  58  82 CALM      29.96S
$$

KYZ024-025-028>034-038-045-046-053-300300-
NORTH CENTRAL KENTUCKY

CITY           SKY/WX    TMP DP  RH WIND       PRES   REMARKS
LOUISVILLE/SDF CLEAR     72  55  55 CALM      29.95R
LOUISVILLE/LOU CLEAR     65  56  72 CALM      29.95S
FORT KNOX      CLEAR     59  55  87 SW2       29.95S
$$

KYZ035>037-039>044-047>052-055>060-089>105-300300-
NORTHEAST KENTUCKY

CITY           SKY/WX    TMP DP  RH WIND       PRES   REMARKS
LEXINGTON      CLEAR     65  54  67 CALM      29.97R
COVINGTON      CLEAR     64  50  60 CALM      29.95R
FRANKFORT      CLEAR     60  54  80 CALM      29.95R
$$

KYZ054-064>069-076>088-106>120-300300-
SOUTHEAST KENTUCKY

CITY           SKY/WX    TMP DP  RH WIND       PRES   REMARKS
JACKSON        CLEAR     68  63  84 CALM      29.98R
LONDON         CLEAR     67  62  84 CALM      29.98R
SOMERSET       CLEAR     64  63  94 CALM      29.98R
MIDDLESBORO    CLEAR     64  61  91 CALM      30.00R
MONTICELLO     CLEAR     61  58  90 CALM      29.99R
$$




USA.gov is the U.S. government's official web portal to all federal, state and local government web resources and services.